sat.trackr.live / text

‹ back to catalog

GLOBALSTAR M080

NORAD 38041 · 2011-080B

PAYLOAD ACTIVE UNKNOWN

§ Identity

Operator
Country
GLOB
Launch date
2011-12-28
Launch site
TYMSC
Launch vehicle
Mass (kg)
RCS (m²)
4.55

Purposes: comms

External: N2YO · Heavens-Above · Gunter

§ Orbital elements

Epoch: 2026-09-19T23:12:21.174336Z

Period
114.08 min
Inclination
52.0051°
Eccentricity
0.0001164
Mean motion
12.62268507 rev/d
Perigee alt
1,412.7 km
Apogee alt
1,414.5 km
Semi-major
7,791.7 km
B*
-5.3197e-5
RAAN
90.4923°
Arg perigee
93.6638°
Mean anomaly
70.6083°
Rev number
68,085

§ Raw data

GLOBALSTAR M0801 38041U 11080B   26262.96691174 -.00000113  00000+0 -53197-4 0  99922 38041  52.0051  90.4923 0001164  93.6638  70.6083 12.62268507680855

JSON: /api/v1/satellites/38041 · /tle

For live sub-satellite position, see the globe view (requires WebGL).

§ Visibility from observer

Set your observer location to see the next 7 days of passes ≥ 10°. The values pass through the URL so the page stays shareable.

No JS? Fill the form by hand. The geolocation button needs JavaScript.